{"data":{"norad_id":62279,"epoch":"2026-09-21T04:47:03.598944Z","epoch_age_seconds":117179,"freshness":"FRESH","line1":"1 62279U 24237N   26264.19934721  .00040174  00000+0  31479-3 0  9992","line2":"2 62279  43.0000 318.7869 0001617 263.2367  96.8316 15.70860509103728","mean_motion":15.70860509,"eccentricity":0.0001617,"inclination_deg":43,"raan_deg":318.7869,"arg_perigee_deg":263.2367,"mean_anomaly_deg":96.8316,"bstar":0.00031479,"rev_number":10372,"period_min":91.669501636189,"perigee_km":355.34746312017,"apogee_km":357.52542417184,"semimajor_km":6734.573443646,"source":"CELESTRAK","updated_at":"2026-09-22T09:00:49.568148Z"}}